Location: Lombray
(49.5154°N, 3.1089°E)
Time: 05:01:26
(UTC+00:00)

Cosmos 1536 - Pass Details

Date: 15 May 2026
Orbit: 482 x 500 km, 82.5° (Epoch: 6 June)

Event Time Altitude Azimuth Distance (km) Brightness Sun altitude
Rises 21:30:35 0° 359° (N) 2,570 7.3 -15.3°
Reaches altitude 10° 21:32:56 10° 12° (NNE) 1,687 6.0 -15.6°
Maximum altitude 21:36:08 27° 72° (ENE) 965 3.9 -15.8°
Enters shadow 21:37:14 23° 103° (ESE) 1,078 3.9 -15.9°
